Time,TemperatureF,DewpointF,PressureIn,WindDirection,WindDirectionDegrees,WindSpeedMPH,WindSpeedGustMPH,Humidity,HourlyPrecipIn,Conditions,Clouds,dailyrainin,SoftwareType,DateUTC
2013-01-25 08:29:00,47.5,37.1,28.82,WSW,248,2.0,2.0,67,0.00,,---,0.00,VWS V14.01,2013-01-25 07:29:00,
2013-01-25 08:30:00,47.5,37.1,28.82,WSW,248,2.0,2.0,67,0.00,,---,0.00,VWS V14.01,2013-01-25 07:30:00,
2013-01-25 08:35:00,48.2,37.0,28.82,West,270,3.1,3.1,65,0.00,,---,0.00,VWS V14.01,2013-01-25 07:35:00,
2013-01-25 08:40:00,48.7,37.1,28.82,SSE,158,4.3,4.3,64,0.00,,---,0.00,VWS V14.01,2013-01-25 07:40:00,
2013-01-25 08:46:00,49.5,37.4,28.82,SW,225,4.9,4.9,63,0.00,,---,0.00,VWS V14.01,2013-01-25 07:46:00,
2013-01-25 08:51:00,50.0,36.7,28.82,North,0,2.9,4.3,60,0.00,,---,0.00,VWS V14.01,2013-01-25 07:51:00,
2013-01-25 08:56:00,50.2,36.8,28.82,West,270,3.4,3.4,60,0.00,,---,0.00,VWS V14.01,2013-01-25 07:56:00,
2013-01-25 09:01:00,50.7,36.5,28.82,West,270,4.9,4.9,58,0.00,,---,0.00,VWS V14.01,2013-01-25 08:01:00,
2013-01-25 09:06:00,51.1,36.4,28.82,NNW,338,6.0,6.0,57,0.00,,---,0.00,VWS V14.01,2013-01-25 08:06:00,
2013-01-25 09:11:00,51.3,36.1,28.82,South,180,3.8,3.8,56,0.00,,---,0.00,VWS V14.01,2013-01-25 08:11:00,
2013-01-25 09:15:00,51.3,36.1,28.82,NE,45,2.7,2.9,56,0.00,,---,0.00,VWS V14.01,2013-01-25 08:15:00,
2013-01-25 10:01:00,55.4,37.6,28.85,ESE,112,3.4,3.4,51,0.00,,---,0.00,VWS V14.01,2013-01-25 09:01:00,
2013-01-25 10:06:00,55.6,37.2,28.85,WNW,292,3.1,4.9,50,0.00,,---,0.00,VWS V14.01,2013-01-25 09:06:00,
2013-01-25 10:11:00,55.0,36.8,28.85,SW,225,5.8,5.8,50,0.00,,---,0.00,VWS V14.01,2013-01-25 09:11:00,
2013-01-25 10:16:00,53.6,35.4,28.85,ESE,112,4.7,4.7,50,0.00,,---,0.00,VWS V14.01,2013-01-25 09:16:00,
2013-01-25 10:21:00,52.7,35.1,28.85,WSW,248,4.3,4.3,51,0.00,,---,0.00,VWS V14.01,2013-01-25 09:21:00,
2013-01-25 10:26:00,52.0,34.4,28.85,East,90,2.9,5.8,51,0.00,,---,0.00,VWS V14.01,2013-01-25 09:26:00,
2013-01-25 10:31:00,51.4,33.9,28.85,West,270,5.6,6.3,51,0.00,,---,0.00,VWS V14.01,2013-01-25 09:31:00,
2013-01-25 10:36:00,51.6,34.6,28.85,NNW,338,4.3,4.3,52,0.00,,---,0.00,VWS V14.01,2013-01-25 09:36:00,
2013-01-25 10:41:00,52.0,34.4,28.85,NNW,338,3.4,4.3,51,0.00,,---,0.00,VWS V14.01,2013-01-25 09:41:00,
2013-01-25 10:46:00,51.8,34.3,28.85,West,270,2.7,8.1,51,0.00,,---,0.00,VWS V14.01,2013-01-25 09:46:00,
2013-01-25 10:52:00,51.8,34.3,28.85,WSW,248,4.0,4.7,51,0.00,,---,0.00,VWS V14.01,2013-01-25 09:52:00,
2013-01-25 10:57:00,52.7,35.1,28.85,West,270,3.4,3.4,51,0.00,,---,0.00,VWS V14.01,2013-01-25 09:57:00,
2013-01-25 11:02:00,53.1,35.4,28.85,NE,45,6.5,6.5,51,0.00,,---,0.00,VWS V14.01,2013-01-25 10:02:00,
2013-01-25 11:07:00,52.5,34.9,28.85,WSW,248,4.9,4.9,51,0.00,,---,0.00,VWS V14.01,2013-01-25 10:07:00,
2013-01-25 11:12:00,51.4,33.9,28.85,WSW,248,5.4,6.3,51,0.00,,---,0.00,VWS V14.01,2013-01-25 10:12:00,
2013-01-25 11:17:00,51.1,33.6,28.85,WSW,248,6.5,6.5,51,0.00,,---,0.00,VWS V14.01,2013-01-25 10:17:00,
2013-01-25 11:22:00,51.6,34.6,28.85,West,270,7.4,7.4,52,0.00,,---,0.00,VWS V14.01,2013-01-25 10:22:00,
2013-01-25 11:27:00,54.5,36.3,28.85,West,270,5.6,8.5,50,0.00,,---,0.00,VWS V14.01,2013-01-25 10:27:00,
2013-01-25 11:32:00,56.1,37.2,28.85,SSE,158,4.5,4.5,49,0.00,,---,0.00,VWS V14.01,2013-01-25 10:32:00,
2013-01-25 11:37:00,56.7,37.2,28.85,WSW,248,4.0,6.5,48,0.00,,---,0.00,VWS V14.01,2013-01-25 10:37:00,
2013-01-25 11:42:00,57.4,37.9,28.85,WNW,292,2.7,4.9,48,0.00,,---,0.00,VWS V14.01,2013-01-25 10:42:00,
2013-01-25 11:48:00,57.0,37.0,28.85,WSW,248,2.7,8.7,47,0.00,,---,0.00,VWS V14.01,2013-01-25 10:48:00,
2013-01-25 11:53:00,57.0,37.0,28.85,NNE,22,5.4,5.4,47,0.00,,---,0.00,VWS V14.01,2013-01-25 10:53:00,
2013-01-25 11:58:00,57.4,37.3,28.85,South,180,6.5,6.5,47,0.00,,---,0.00,VWS V14.01,2013-01-25 10:58:00,
2013-01-25 12:03:00,56.8,36.8,28.85,SSW,202,3.1,8.7,47,0.00,,---,0.00,VWS V14.01,2013-01-25 11:03:00,
2013-01-25 12:08:00,57.4,37.3,28.85,WNW,292,5.6,5.6,47,0.00,,---,0.00,VWS V14.01,2013-01-25 11:08:00,
2013-01-25 12:13:00,58.1,37.5,28.85,WNW,292,4.9,4.9,46,0.00,,---,0.00,VWS V14.01,2013-01-25 11:13:00,
2013-01-25 12:18:00,58.6,37.9,28.85,WSW,248,2.0,3.1,46,0.00,,---,0.00,VWS V14.01,2013-01-25 11:18:00,
2013-01-25 12:23:00,58.6,37.4,28.85,WSW,248,8.5,8.5,45,0.00,,---,0.00,VWS V14.01,2013-01-25 11:23:00,
2013-01-25 12:28:00,58.8,37.5,28.85,NNW,338,3.4,3.8,45,0.00,,---,0.00,VWS V14.01,2013-01-25 11:28:00,
2013-01-25 12:33:00,59.0,37.7,28.85,West,270,5.8,5.8,45,0.00,,---,0.00,VWS V14.01,2013-01-25 11:33:00,
2013-01-25 12:38:00,58.8,37.5,28.85,NNW,338,5.4,5.4,45,0.00,,---,0.00,VWS V14.01,2013-01-25 11:38:00,
2013-01-25 12:43:00,58.5,37.2,28.85,NW,315,3.8,6.5,45,0.00,,---,0.00,VWS V14.01,2013-01-25 11:43:00,
2013-01-25 12:49:00,58.6,37.4,28.85,WSW,248,4.9,4.9,45,0.00,,---,0.00,VWS V14.01,2013-01-25 11:49:00,
2013-01-25 12:54:00,59.0,37.1,28.85,West,270,2.9,2.9,44,0.00,,---,0.00,VWS V14.01,2013-01-25 11:54:00,
2013-01-25 12:59:00,58.3,36.5,28.85,NNW,338,4.9,8.1,44,0.00,,---,0.00,VWS V14.01,2013-01-25 11:59:00,
2013-01-25 13:04:00,57.7,36.0,28.85,West,270,6.5,7.6,44,0.00,,---,0.00,VWS V14.01,2013-01-25 12:04:00,
2013-01-25 13:09:00,57.7,36.0,28.85,WSW,248,3.4,4.0,44,0.00,,---,0.00,VWS V14.01,2013-01-25 12:09:00,
2013-01-25 13:14:00,58.1,36.3,28.85,West,270,2.9,6.0,44,0.00,,---,0.00,VWS V14.01,2013-01-25 12:14:00,
2013-01-25 13:19:00,58.5,36.7,28.85,WSW,248,7.6,7.6,44,0.00,,---,0.00,VWS V14.01,2013-01-25 12:19:00,
2013-01-25 13:24:00,58.6,36.8,28.85,WSW,248,5.8,5.8,44,0.00,,---,0.00,VWS V14.01,2013-01-25 12:24:00,
2013-01-25 13:29:00,58.6,36.2,28.85,South,180,4.9,4.9,43,0.00,,---,0.00,VWS V14.01,2013-01-25 12:29:00,
2013-01-25 13:34:00,58.1,35.7,28.85,WSW,248,4.0,7.8,43,0.00,,---,0.00,VWS V14.01,2013-01-25 12:34:00,
2013-01-25 13:39:00,58.6,36.2,28.85,West,270,3.1,3.1,43,0.00,,---,0.00,VWS V14.01,2013-01-25 12:39:00,
2013-01-25 13:44:00,58.8,36.4,28.85,West,270,6.0,6.0,43,0.00,,---,0.00,VWS V14.01,2013-01-25 12:44:00,
2013-01-25 13:50:00,58.8,35.8,28.85,WNW,292,2.9,2.9,42,0.00,,---,0.00,VWS V14.01,2013-01-25 12:50:00,
2013-01-25 13:55:00,58.6,35.6,28.85,NNW,338,4.3,6.9,42,0.00,,---,0.00,VWS V14.01,2013-01-25 12:55:00,
2013-01-25 14:00:00,58.1,35.7,28.85,West,270,2.0,2.7,43,0.00,,---,0.00,VWS V14.01,2013-01-25 13:00:00,
2013-01-25 14:05:00,58.1,35.7,28.85,WSW,248,3.4,3.4,43,0.00,,---,0.00,VWS V14.01,2013-01-25 13:05:00,
2013-01-25 14:10:00,58.1,35.2,28.85,SSE,158,6.0,6.0,42,0.00,,---,0.00,VWS V14.01,2013-01-25 13:10:00,
2013-01-25 14:15:00,56.8,34.6,28.85,SW,225,4.0,4.0,43,0.00,,---,0.00,VWS V14.01,2013-01-25 13:15:00,
2013-01-25 14:20:00,55.9,33.8,28.85,West,270,4.9,4.9,43,0.00,,---,0.00,VWS V14.01,2013-01-25 13:20:00,
2013-01-25 14:25:00,55.9,33.8,28.85,West,270,6.7,6.7,43,0.00,,---,0.00,VWS V14.01,2013-01-25 13:25:00,
2013-01-25 14:30:00,55.9,34.4,28.85,West,270,2.5,7.4,44,0.00,,---,0.00,VWS V14.01,2013-01-25 13:30:00,
2013-01-25 14:35:00,54.9,33.4,28.85,WSW,248,5.6,5.6,44,0.00,,---,0.00,VWS V14.01,2013-01-25 13:35:00,
2013-01-25 14:40:00,55.2,34.3,28.85,NW,315,3.6,3.6,45,0.00,,---,0.00,VWS V14.01,2013-01-25 13:40:00,
2013-01-25 14:45:00,55.9,34.9,28.85,West,270,3.8,3.8,45,0.00,,---,0.00,VWS V14.01,2013-01-25 13:45:00,
2013-01-25 14:51:00,56.5,35.4,28.85,West,270,2.0,4.9,45,0.00,,---,0.00,VWS V14.01,2013-01-25 13:51:00,
2013-01-25 14:56:00,57.2,35.5,28.85,SW,225,2.9,2.9,44,0.00,,---,0.00,VWS V14.01,2013-01-25 13:56:00,
2013-01-25 15:01:00,57.6,35.8,28.85,South,180,2.0,2.0,44,0.00,,---,0.00,VWS V14.01,2013-01-25 14:01:00,
2013-01-25 15:06:00,57.2,35.5,28.85,West,270,3.1,3.1,44,0.00,,---,0.00,VWS V14.01,2013-01-25 14:06:00,
2013-01-25 15:11:00,56.8,35.2,28.85,NW,315,2.9,2.9,44,0.00,,---,0.00,VWS V14.01,2013-01-25 14:11:00,
2013-01-25 15:16:00,55.9,34.4,28.85,North,0,3.4,3.4,44,0.00,,---,0.00,VWS V14.01,2013-01-25 14:16:00,
2013-01-25 15:21:00,55.2,33.7,28.85,West,270,4.3,4.3,44,0.00,,---,0.00,VWS V14.01,2013-01-25 14:21:00,
2013-01-25 15:26:00,54.9,33.4,28.85,West,270,4.3,4.3,44,0.00,,---,0.00,VWS V14.01,2013-01-25 14:26:00,
2013-01-25 15:31:00,54.7,33.2,28.85,NW,315,5.6,5.6,44,0.00,,---,0.00,VWS V14.01,2013-01-25 14:31:00,
2013-01-25 15:36:00,54.7,33.8,28.85,NW,315,2.5,2.5,45,0.00,,---,0.00,VWS V14.01,2013-01-25 14:36:00,
2013-01-25 15:41:00,54.1,33.3,28.88,WSW,248,5.4,5.4,45,0.00,,---,0.00,VWS V14.01,2013-01-25 14:41:00,
2013-01-25 15:47:00,53.4,33.2,28.88,SSW,202,2.9,5.4,46,0.00,,---,0.00,VWS V14.01,2013-01-25 14:47:00,
2013-01-25 15:52:00,53.2,33.0,28.88,WSW,248,3.8,3.8,46,0.00,,---,0.00,VWS V14.01,2013-01-25 14:52:00,
2013-01-25 15:57:00,53.1,32.8,28.88,SSW,202,2.9,2.9,46,0.00,,---,0.00,VWS V14.01,2013-01-25 14:57:00,
2013-01-25 16:02:00,53.4,33.2,28.88,West,270,4.0,4.0,46,0.00,,---,0.00,VWS V14.01,2013-01-25 15:02:00,
2013-01-25 16:07:00,53.6,33.3,28.88,South,180,3.1,3.1,46,0.00,,---,0.00,VWS V14.01,2013-01-25 15:07:00,
2013-01-25 16:12:00,53.4,33.7,28.88,West,270,2.9,4.0,47,0.00,,---,0.00,VWS V14.01,2013-01-25 15:12:00,
2013-01-25 16:17:00,52.9,33.2,28.88,East,90,2.9,2.9,47,0.00,,---,0.00,VWS V14.01,2013-01-25 15:17:00,
2013-01-25 16:22:00,53.2,33.5,28.88,West,270,4.0,4.0,47,0.00,,---,0.00,VWS V14.01,2013-01-25 15:22:00,
2013-01-25 16:27:00,53.6,33.9,28.88,East,90,4.5,4.5,47,0.00,,---,0.00,VWS V14.01,2013-01-25 15:27:00,
2013-01-25 16:32:00,53.4,33.7,28.88,West,270,2.0,2.9,47,0.00,,---,0.00,VWS V14.01,2013-01-25 15:32:00,
2013-01-25 16:37:00,54.0,33.7,28.88,SW,225,3.4,3.4,46,0.00,,---,0.00,VWS V14.01,2013-01-25 15:37:00,
2013-01-25 16:42:00,53.4,33.7,28.88,North,0,3.1,3.6,47,0.00,,---,0.00,VWS V14.01,2013-01-25 15:42:00,
2013-01-25 16:47:00,52.7,33.0,28.88,SSE,158,3.1,3.1,47,0.00,,---,0.00,VWS V14.01,2013-01-25 15:47:00,
2013-01-25 16:53:00,51.4,31.9,28.88,SSW,202,3.1,3.1,47,0.00,,---,0.00,VWS V14.01,2013-01-25 15:53:00,
2013-01-25 16:58:00,50.9,31.9,28.88,ENE,68,2.0,3.4,48,0.00,,---,0.00,VWS V14.01,2013-01-25 15:58:00,
2013-01-25 17:03:00,50.4,31.4,28.88,West,270,5.6,5.6,48,0.00,,---,0.00,VWS V14.01,2013-01-25 16:03:00,
2013-01-25 17:08:00,50.2,31.3,28.88,West,270,2.0,3.1,48,0.00,,---,0.00,VWS V14.01,2013-01-25 16:08:00,
2013-01-25 17:13:00,49.8,31.4,28.91,SW,225,2.9,3.8,49,0.00,,---,0.00,VWS V14.01,2013-01-25 16:13:00,
2013-01-25 17:18:00,49.8,31.4,28.91,NNE,22,3.8,3.8,49,0.00,,---,0.00,VWS V14.01,2013-01-25 16:18:00,
2013-01-25 17:23:00,49.5,31.1,28.91,West,270,4.9,4.9,49,0.00,,---,0.00,VWS V14.01,2013-01-25 16:23:00,
2013-01-25 17:28:00,49.3,31.5,28.91,SW,225,3.1,3.1,50,0.00,,---,0.00,VWS V14.01,2013-01-25 16:28:00,
2013-01-25 17:33:00,49.1,31.3,28.91,West,270,2.5,2.5,50,0.00,,---,0.00,VWS V14.01,2013-01-25 16:33:00,
2013-01-25 17:38:00,48.9,31.1,28.91,SSE,158,1.3,2.9,50,0.00,,---,0.00,VWS V14.01,2013-01-25 16:38:00,
2013-01-25 17:43:00,48.9,31.6,28.91,NW,315,3.8,3.8,51,0.00,,---,0.00,VWS V14.01,2013-01-25 16:43:00,
2013-01-25 17:48:00,48.7,31.4,28.91,West,270,1.6,3.1,51,0.00,,---,0.00,VWS V14.01,2013-01-25 16:48:00,
2013-01-25 17:54:00,48.6,31.3,28.91,West,270,1.6,1.6,51,0.00,,---,0.00,VWS V14.01,2013-01-25 16:54:00,
2013-01-25 17:59:00,48.4,31.1,28.91,WNW,292,2.7,2.7,51,0.00,,---,0.00,VWS V14.01,2013-01-25 16:59:00,
2013-01-25 18:04:00,48.2,31.4,28.91,West,270,2.0,2.9,52,0.00,,---,0.00,VWS V14.01,2013-01-25 17:04:00,
2013-01-25 18:09:00,48.0,31.7,28.94,West,270,4.3,4.3,53,0.00,,---,0.00,VWS V14.01,2013-01-25 17:09:00,
2013-01-25 18:14:00,47.8,31.5,28.94,SW,225,2.9,3.6,53,0.00,,---,0.00,VWS V14.01,2013-01-25 17:14:00,
2013-01-25 18:19:00,47.7,31.4,28.94,West,270,3.6,3.6,53,0.00,,---,0.00,VWS V14.01,2013-01-25 17:19:00,
2013-01-25 18:24:00,47.7,31.9,28.94,WSW,248,2.7,2.7,54,0.00,,---,0.00,VWS V14.01,2013-01-25 17:24:00,
2013-01-25 18:29:00,47.5,31.7,28.94,West,270,2.2,2.9,54,0.00,,---,0.00,VWS V14.01,2013-01-25 17:29:00,
2013-01-25 18:34:00,47.3,31.5,28.94,NW,315,1.6,3.1,54,0.00,,---,0.00,VWS V14.01,2013-01-25 17:34:00,
2013-01-25 18:39:00,47.3,32.0,28.94,West,270,0.0,0.0,55,0.00,,---,0.00,VWS V14.01,2013-01-25 17:39:00,
2013-01-25 18:44:00,47.1,31.8,28.94,West,270,2.5,2.5,55,0.00,,---,0.00,VWS V14.01,2013-01-25 17:44:00,
2013-01-25 18:50:00,46.9,31.6,28.94,West,270,2.0,3.4,55,0.00,,---,0.00,VWS V14.01,2013-01-25 17:50:00,
2013-01-25 18:54:00,46.9,32.1,28.94,West,270,1.6,3.1,56,0.00,,---,0.00,VWS V14.01,2013-01-25 17:54:00,
2013-01-25 19:00:00,46.8,31.9,28.94,SW,225,1.6,2.2,56,0.00,,---,0.00,VWS V14.01,2013-01-25 18:00:00,
2013-01-25 19:05:00,46.6,31.7,28.94,SE,135,1.3,2.7,56,0.00,,---,0.00,VWS V14.01,2013-01-25 18:05:00,
2013-01-25 19:10:00,46.4,32.0,28.94,West,270,0.9,1.3,57,0.00,,---,0.00,VWS V14.01,2013-01-25 18:10:00,
2013-01-25 19:15:00,46.2,32.3,28.94,West,270,1.1,1.6,58,0.00,,---,0.00,VWS V14.01,2013-01-25 18:15:00,
2013-01-25 19:20:00,46.2,32.3,28.94,SE,135,2.7,2.7,58,0.00,,---,0.00,VWS V14.01,2013-01-25 18:20:00,
2013-01-25 19:25:00,46.2,32.3,28.94,West,270,2.7,2.7,58,0.00,,---,0.00,VWS V14.01,2013-01-25 18:25:00,
2013-01-25 19:31:00,46.0,32.1,28.94,WNW,292,1.3,2.5,58,0.00,,---,0.00,VWS V14.01,2013-01-25 18:31:00,
2013-01-25 19:36:00,46.0,32.1,28.94,SSE,158,2.2,2.7,58,0.00,,---,0.00,VWS V14.01,2013-01-25 18:36:00,
2013-01-25 19:41:00,46.0,32.5,28.97,West,270,0.9,1.6,59,0.00,,---,0.00,VWS V14.01,2013-01-25 18:41:00,
2013-01-25 19:46:00,46.0,32.5,28.97,East,90,2.5,2.5,59,0.00,,---,0.00,VWS V14.01,2013-01-25 18:46:00,
2013-01-25 19:51:00,45.9,32.4,28.97,West,270,1.6,1.6,59,0.00,,---,0.00,VWS V14.01,2013-01-25 18:51:00,
2013-01-25 19:56:00,45.7,32.2,28.97,WSW,248,3.1,3.1,59,0.00,,---,0.00,VWS V14.01,2013-01-25 18:56:00,
2013-01-25 20:01:00,45.7,32.6,28.97,SSW,202,1.6,4.0,60,0.00,,---,0.00,VWS V14.01,2013-01-25 19:01:00,
2013-01-25 20:07:00,45.5,32.4,28.97,West,270,2.0,2.9,60,0.00,,---,0.00,VWS V14.01,2013-01-25 19:07:00,
2013-01-25 20:12:00,45.5,32.4,28.97,ENE,68,1.3,2.0,60,0.00,,---,0.00,VWS V14.01,2013-01-25 19:12:00,
2013-01-25 20:17:00,45.5,32.4,28.97,NW,315,2.9,2.9,60,0.00,,---,0.00,VWS V14.01,2013-01-25 19:17:00,
2013-01-25 20:22:00,45.3,32.3,28.97,SE,135,1.3,1.6,60,0.00,,---,0.00,VWS V14.01,2013-01-25 19:22:00,
2013-01-25 20:27:00,45.1,32.1,28.97,West,270,0.0,0.0,60,0.00,,---,0.00,VWS V14.01,2013-01-25 19:27:00,
2013-01-25 20:32:00,45.1,32.1,28.97,West,270,1.6,1.6,60,0.00,,---,0.00,VWS V14.01,2013-01-25 19:32:00,
2013-01-25 20:37:00,45.0,31.9,28.97,West,270,1.6,1.6,60,0.00,,---,0.00,VWS V14.01,2013-01-25 19:37:00,
2013-01-25 20:42:00,45.0,31.9,28.97,WNW,292,1.6,2.5,60,0.00,,---,0.00,VWS V14.01,2013-01-25 19:42:00,
2013-01-25 20:48:00,45.0,31.9,28.97,West,270,1.1,1.1,60,0.00,,---,0.00,VWS V14.01,2013-01-25 19:48:00,
2013-01-25 20:53:00,44.8,31.8,28.97,West,270,1.1,1.6,60,0.00,,---,0.00,VWS V14.01,2013-01-25 19:53:00,
2013-01-25 20:58:00,44.8,31.8,28.97,West,270,1.3,2.9,60,0.00,,---,0.00,VWS V14.01,2013-01-25 19:58:00,
2013-01-25 21:03:00,44.6,32.0,28.97,West,270,2.7,2.7,61,0.00,,---,0.00,VWS V14.01,2013-01-25 20:03:00,